Location: Ladrillo (historical)
(32.8195°N, 117.2231°W)
Time: 00:35:13
(UTC+00:00)

Courier 1B - Pass Details

Date: 11 March 2021
Orbit: 963 x 1209 km, 28.3° (Epoch: 15 April)

Event Time Altitude Azimuth Distance (km) Brightness Sun altitude
Rises 18:11:05 0° 267° (W) 3,638 10.2 45.7°
Reaches altitude 10° 18:14:28 10° 250° (WSW) 2,684 9.8 46.2°
Maximum altitude 18:18:54 20° 206° (SSW) 2,085 9.8 46.7°
Drops below altitude 10° 18:23:23 10° 162° (SSE) 2,712 10.7 47.3°
Sets 18:26:51 0° 146° (SE) 3,688 11.2 47.7°
